Punta Cana, Dominican Republic

11:18 AM AST on October 01, 2016 (GMT -0400)
Punta Cana International

Weather History for MDPC - June, 2013

Change the Weather History Date:

Thursday, June 27, 2013

  Actual Average Record
Temperature  
Mean Temperature 80 °F -  
Max Temperature 86 °F 86 °F 90 °F (2012)
Min Temperature 75 °F 77 °F 75 °F (2010)
Cooling Degree Days 16    
Growing Degree Days 30 (Base 50)    
Moisture  
Dew Point 76 °F    
Average Humidity 89    
Maximum Humidity 100    
Minimum Humidity 70    
Precipitation  
Precipitation 0.00 in - - ()
Sea Level Pressure  
Sea Level Pressure 30.00 in    
Wind  
Wind Speed 5 mph ()    
Max Wind Speed 14 mph    
Max Gust Speed -    
Visibility 5.9 miles    
Events Rain , Thunderstorm    
Averages and records for this station are not official NWS values.
T = Trace of Precipitation, MM = Missing Value Source: Averaged Metar Reports

Daily Weather History Graph

Daily Weather History Graph

Search for Another Location

Airport or City:

Trip Planner

Search our weather history database for the weather conditions in past years. The results will help you decide how hot, cold, wet, or windy it might be!

Date:

Astronomy

Jun. 27, 2013 Rise Set
Actual Time 5:59 AM AST 7:13 PM AST
Civil Twilight 5:35 AM AST 7:38 PM AST
Nautical Twilight 5:06 AM AST 8:06 PM AST
Astronomical Twilight 4:36 AM AST 8:36 PM AST
Moon 10:54 PM AST (6/27) 10:15 AM AST (6/27)
Length of Visible Light 14h 02m
Length of Day
13h 14m
Waning Gibbous, 76% of the Moon is Illuminated
Jun 27
Waning Gibbous
Jun 30
Last Quarter
Jul 8
New
Jul 15
First Quarter
Jul 22
Full

Hourly Weather History & Observations

Time (AST) Temp. Heat Index Dew Point Humidity Pressure Visibility Wind Dir Wind Speed Gust Speed Precip Events Conditions
12:00 AM 78.8 °F - 75.2 °F 89% 30.01 in 6.2 mi South 5.8 mph - N/A   Mostly Cloudy
1:00 AM 78.8 °F - 75.2 °F 89% 30.01 in 6.2 mi South 5.8 mph - N/A   Mostly Cloudy
3:00 AM 78.8 °F - 75.2 °F 89% 30.01 in 6.2 mi SSE 5.8 mph - N/A   Scattered Clouds
4:00 AM 78.8 °F - 75.2 °F 89% 29.98 in 6.2 mi SSE 5.8 mph - N/A   Scattered Clouds
5:00 AM 78.8 °F - 75.2 °F 89% 29.98 in 6.2 mi ESE 5.8 mph - N/A   Scattered Clouds
6:00 AM 77.0 °F - 75.2 °F 94% 29.98 in 6.2 mi Calm Calm - N/A   Scattered Clouds
7:00 AM 78.8 °F - 75.2 °F 89% 30.01 in 6.2 mi East 5.8 mph - N/A   Scattered Clouds
8:00 AM 82 °F - 76 °F 76% 30.01 in 10 mi ESE 11.2 mph - -   Scattered Clouds
8:00 AM 82.4 °F 89.5 °F 75.2 °F 79% 30.01 in 6.2 mi ESE 11.5 mph - N/A   Partly Cloudy
9:00 AM 84.2 °F 94.1 °F 77.0 °F 79% 30.01 in 6.2 mi East 13.8 mph - N/A   Scattered Clouds
10:00 AM 82.4 °F 89.5 °F 75.2 °F 79% 30.01 in 6.2 mi East 11.5 mph - N/A   Scattered Clouds
11:00 AM 86.0 °F 95.1 °F 75.2 °F 70% 30.01 in 6.2 mi ESE 5.8 mph - N/A   Scattered Clouds
12:00 PM 78.8 °F - 75.2 °F 89% 30.01 in 5.0 mi SSE 5.8 mph - N/A Rain Light Rain
1:00 PM 77.0 °F - 75.2 °F 94% 30.01 in 5.0 mi ESE 6.9 mph - N/A Rain , Thunderstorm Light Thunderstorms and Rain
2:00 PM 77 °F - 76 °F 94% 30.01 in 5 mi Calm Calm - - Rain , Thunderstorm Thunderstorms and Rain
2:00 PM 77.0 °F - 75.2 °F 94% 30.01 in 5.0 mi Calm Calm - N/A Rain , Thunderstorm Light Thunderstorms and Rain
3:00 PM 78.8 °F - 77.0 °F 94% 30.01 in 6.2 mi Calm Calm - N/A   Mostly Cloudy
4:00 PM 78.8 °F - 77.0 °F 94% 29.98 in 5.0 mi Calm Calm - N/A Rain , Thunderstorm Light Thunderstorms and Rain
5:00 PM 75.2 °F - 73.4 °F 94% 29.98 in 4.3 mi ESE 9.2 mph - N/A   Overcast
6:00 PM 77.0 °F - 73.4 °F 89% 30.01 in 5.0 mi ESE 6.9 mph - N/A Rain Light Rain
7:00 PM 77.0 °F - 75.2 °F 94% 30.01 in 5.0 mi East 6.9 mph - N/A   Overcast
8:00 PM 78 °F - 77 °F 94% 30.03 in 5 mi East 6.7 mph - -   Overcast
8:00 PM 78.8 °F - 77.0 °F 94% 30.01 in 5.6 mi East 5.8 mph - N/A Rain Light Rain
9:00 PM 77.0 °F - 75.2 °F 94% 30.01 in 6.2 mi North 5.8 mph - N/A   Overcast
10:00 PM 77.0 °F - 77.0 °F 100% 30.01 in 6.2 mi SE 4.6 mph - N/A   Overcast
11:00 PM 78.8 °F - 77.0 °F 94% 30.01 in 6.2 mi ESE 4.6 mph - N/A   Mostly Cloudy